Weather History for Swansboro, NC

Change the Weather History Date:

Saturday, January 11, 2014

  Actual Average (KNKT) Record (KNKT)
Temperature  
Mean Temperature 62 °F -  
Max Temperature 69 °F 54 °F 72 °F (2014)
Min Temperature 55 °F 33 °F 19 °F (2004)
Degree Days  
Heating Degree Days 3    
Growing Degree Days 12 (Base 50)    
Moisture  
Dew Point 61 °F    
Average Humidity 90    
Maximum Humidity 93    
Minimum Humidity 83    
Precipitation  
Precipitation 0.35 in - - ()
Sea Level Pressure  
Sea Level Pressure 29.86 in    
Wind  
Wind Speed 13 mph (SW)    
Max Wind Speed 25 mph    
Max Gust Speed 37 mph    
Visibility 5 miles    
Events Rain , Thunderstorm    
Averages and records for this station are not official NWS values.
T = Trace of Precipitation, MM = Missing Value Source: NWS Daily Summary

Daily Weather History Graph

Daily Weather History Graph

Search for Another Location

Airport:

Trip Planner

Search our weather history database for the weather conditions in past years. The results will help you decide how hot, cold, wet, or windy it might be!

Date:

Astronomy

Jan. 11, 2014 Rise Set
Actual Time 7:15 AM EST 5:16 PM EST
Civil Twilight 6:48 AM EST 5:44 PM EST
Nautical Twilight 6:16 AM EST 6:15 PM EST
Astronomical Twilight 5:46 AM EST 6:45 PM EST
Moon 1:57 PM EST (1/11) 3:20 AM EST (1/11)
Length of Visible Light 10h 56m
Length of Day
10h 01m
Waxing Gibbous, 83% of the Moon is Illuminated
Jan 11
Waxing Gibbous
Jan 15
Full
Jan 24
Last Quarter
Jan 30
New
Feb 6
First Quarter

Hourly Weather History & Observations

Time (EST) Temp. Dew Point Humidity Pressure Visibility Wind Dir Wind Speed Gust Speed Precip Events Conditions
12:25 AM 64.9 °F 62.1 °F 90% 30.12 in 7.0 mi SSW 10.4 mph - 0.02 in   Mostly Cloudy
12:57 AM 64.9 °F 62.1 °F 90% 30.12 in 8.0 mi SSW 10.4 mph - 0.02 in Rain Light Rain
1:57 AM 64.9 °F 63.0 °F 93% 30.10 in 6.0 mi SW 9.2 mph - 0.00 in   Scattered Clouds
2:20 AM 66.0 °F 63.0 °F 90% 30.08 in 7.0 mi SSW 8.1 mph - N/A   Mostly Cloudy
2:28 AM 64.9 °F 62.1 °F 90% 30.08 in 7.0 mi SSW 9.2 mph - N/A   Scattered Clouds
2:46 AM 64.9 °F 62.1 °F 90% 30.07 in 7.0 mi SSW 8.1 mph - N/A   Mostly Cloudy
2:57 AM 64.0 °F 62.1 °F 93% 30.08 in 7.0 mi SSW 6.9 mph - N/A   Mostly Cloudy
3:11 AM 64.9 °F 62.1 °F 90% 30.06 in 7.0 mi SSW 10.4 mph - N/A   Scattered Clouds
3:57 AM 66.0 °F 63.0 °F 90% 30.06 in 7.0 mi SSW 15.0 mph 21.9 mph N/A   Partly Cloudy
4:57 AM 64.9 °F 62.1 °F 90% 30.04 in 7.0 mi South 9.2 mph - N/A   Scattered Clouds
5:57 AM 66.9 °F 64.0 °F 90% 30.01 in 6.0 mi South 10.4 mph - N/A   Partly Cloudy
6:57 AM 66.0 °F 63.0 °F 90% 30.00 in 7.0 mi South 13.8 mph - N/A   Mostly Cloudy
7:57 AM 66.0 °F 63.0 °F 90% 29.99 in 6.0 mi South 13.8 mph - N/A   Overcast
8:32 AM 66.9 °F 64.0 °F 90% 29.97 in 7.0 mi SSW 13.8 mph 23.0 mph 0.00 in   Mostly Cloudy
8:57 AM 66.0 °F 63.0 °F 90% 29.99 in 5.0 mi SSW 12.7 mph - 0.00 in   Mostly Cloudy
9:30 AM 66.9 °F 64.0 °F 90% 29.97 in 5.0 mi SSW 13.8 mph 24.2 mph N/A   Overcast
9:56 AM 66.9 °F 64.0 °F 90% 29.97 in 2.0 mi SSW 16.1 mph - 0.04 in Rain Heavy Rain
10:03 AM 66.9 °F 64.0 °F 90% 29.96 in 1.5 mi SSW 19.6 mph 26.5 mph 0.00 in Rain Light Rain
10:05 AM 66.9 °F 64.0 °F 90% 29.96 in 3.0 mi SSW 19.6 mph 26.5 mph 0.00 in Rain Light Rain
10:21 AM 66.9 °F 64.0 °F 90% 29.95 in 2.5 mi SSW 18.4 mph - 0.02 in Rain Light Rain
11:10 AM 66.9 °F 64.9 °F 93% 29.92 in 4.0 mi SSW 12.7 mph - 0.00 in Rain Light Rain
11:24 AM 69.1 °F 66.0 °F 90% 29.91 in 5.0 mi SSW 17.3 mph 25.3 mph 0.00 in   Overcast
11:34 AM 69.1 °F 66.0 °F 90% 29.89 in 5.0 mi SSW 18.4 mph 25.3 mph 0.00 in   Overcast
11:53 AM 69.8 °F 66.2 °F 88% 29.87 in 5.0 mi SSW 17.3 mph - 0.00 in   Overcast
11:57 AM 69.1 °F 66.0 °F 90% 29.88 in 5.0 mi SSW 19.6 mph 26.5 mph 0.00 in   Overcast
12:28 PM 69.1 °F 64.9 °F 87% 29.84 in 5.0 mi SSW 18.4 mph 28.8 mph 0.00 in   Overcast
12:49 PM 69.1 °F 66.0 °F 90% 29.82 in 3.0 mi SSW 17.3 mph 29.9 mph 0.06 in Rain , Thunderstorm Light Thunderstorms and Rain
12:55 PM 69.8 °F 64.4 °F 83% 29.81 in 5.0 mi SSW 18.4 mph 26.5 mph 0.06 in Rain Light Rain
12:57 PM 68.0 °F 64.9 °F 90% 29.83 in 5.0 mi SSW 18.4 mph 26.5 mph 0.06 in Rain Light Rain
1:18 PM 69.1 °F 64.9 °F 87% 29.79 in 5.0 mi SSW 18.4 mph 26.5 mph 0.00 in Rain , Thunderstorm Light Thunderstorms and Rain
1:34 PM 69.1 °F 64.9 °F 87% 29.78 in 4.0 mi SSW 20.7 mph 28.8 mph 0.00 in Rain Light Rain
1:45 PM 68.0 °F 64.0 °F 87% 29.78 in 3.0 mi SSW 24.2 mph 33.4 mph 0.02 in Rain Rain
1:57 PM 68.0 °F 64.0 °F 87% 29.78 in 4.0 mi SW 20.7 mph 33.4 mph 0.02 in   Mostly Cloudy
2:03 PM 68.0 °F 64.9 °F 90% 29.76 in 4.0 mi SSW 20.7 mph 33.4 mph N/A   Mostly Cloudy
2:44 PM 68.0 °F 64.0 °F 87% 29.77 in 4.0 mi SSW 24.2 mph 32.2 mph N/A   Overcast
2:57 PM 66.9 °F 63.0 °F 87% 29.78 in 4.0 mi SSW 25.3 mph 36.8 mph N/A   Overcast
3:57 PM 66.9 °F 62.1 °F 84% 29.76 in 5.0 mi SW 18.4 mph 29.9 mph 0.00 in   Haze
4:21 PM 66.0 °F 62.1 °F 87% 29.75 in 5.0 mi SSW 19.6 mph 28.8 mph N/A   Mostly Cloudy
4:29 PM 66.0 °F 62.1 °F 87% 29.75 in 4.0 mi SSW 20.7 mph 28.8 mph N/A   Overcast
4:41 PM 64.9 °F 62.1 °F 90% 29.76 in 2.0 mi SW 19.6 mph 26.5 mph N/A   Overcast
4:57 PM 64.0 °F 62.1 °F 93% 29.77 in 2.5 mi SW 18.4 mph 29.9 mph N/A   Overcast
5:07 PM 63.0 °F 61.0 °F 93% 29.75 in 1.5 mi SW 17.3 mph 24.2 mph N/A   Overcast
5:29 PM 63.0 °F 61.0 °F 93% 29.77 in 2.0 mi WNW 13.8 mph 20.7 mph N/A   Overcast
5:39 PM 60.1 °F 57.0 °F 90% 29.76 in 5.0 mi WNW 13.8 mph 26.5 mph 0.00 in Rain Rain
5:47 PM 60.1 °F 55.9 °F 86% 29.77 in 5.0 mi West 10.4 mph 21.9 mph 0.01 in Rain Light Rain
5:57 PM 60.1 °F 55.9 °F 86% 29.78 in 8.0 mi West 12.7 mph - 0.01 in Rain Light Rain
6:15 PM 59.0 °F 55.0 °F 87% 29.77 in 4.0 mi WNW 5.8 mph 17.3 mph 0.05 in Rain Heavy Rain
6:57 PM 57.9 °F 55.0 °F 90% 29.78 in 7.0 mi West 4.6 mph - 0.10 in Rain Light Rain
7:05 PM 57.9 °F 55.0 °F 90% 29.76 in 2.0 mi Variable 3.5 mph - 0.05 in Rain Light Rain
7:14 PM 57.9 °F 55.0 °F 90% 29.74 in 10.0 mi Calm Calm - 0.05 in Rain Light Rain
7:57 PM 57.9 °F 55.0 °F 90% 29.74 in 4.0 mi Calm Calm - 0.10 in Rain Rain
8:57 PM 55.9 °F 53.1 °F 90% 29.67 in 5.0 mi SSE 4.6 mph - 0.00 in   Mostly Cloudy
9:57 PM 57.0 °F 55.0 °F 93% 29.69 in 9.0 mi SW 5.8 mph - 0.00 in   Clear
10:20 PM 57.9 °F 55.9 °F 93% 29.69 in 10.0 mi SW 8.1 mph - N/A   Mostly Cloudy
10:27 PM 57.9 °F 55.9 °F 93% 29.69 in 9.0 mi WSW 6.9 mph - N/A   Overcast
10:50 PM 57.0 °F 55.0 °F 93% 29.69 in 6.0 mi SW 8.1 mph - N/A   Overcast
10:57 PM 57.0 °F 55.0 °F 93% 29.70 in 5.0 mi WSW 8.1 mph - N/A   Overcast
11:14 PM 57.0 °F 55.0 °F 93% 29.69 in 6.0 mi WSW 6.9 mph - N/A   Mostly Cloudy
11:27 PM 57.0 °F 54.0 °F 89% 29.70 in 6.0 mi WSW 6.9 mph - N/A   Scattered Clouds
11:57 PM 55.9 °F 53.1 °F 90% 29.71 in 5.0 mi WSW 5.8 mph - N/A   Clear